Skip Page Navigation
NASA JPL Caltech
NASA Logo - Jet Propulsion Laboratory + View the NASA Portal
+ Center for Near-Earth Object Studies
JPL Home Earth Solar System Stars & Galaxies Technology
JPL Solar System Dynamics
BODIES ORBITS EPHEMERIDES TOOLS PHYSICAL DATA DISCOVERY FAQ SITE MAP
JPL Small-Body Database Browser
Search: [ help ]  
(2013 KT1)
Classification: Aten [NEO]          SPK-ID: 3638577
Ephemeris | Orbit Diagram | Orbital Elements | Mission Design | Physical Parameters | Close-Approach Data ]

[ hide orbit diagram ]

For accurate long-term ephemerides, please instead use our Horizons system.This orbit viewer was implemented using two-body methods, and hence should not be used for determining accurate long-term trajectories (over several years or decades) or planetary encounter circumstances.


[ revert to old Java-based viewer ]

Orbital Elements at Epoch 2459000.5 (2020-May-31.0) TDB
Reference: JPL 9 (heliocentric ecliptic J2000)
 Element Value Uncertainty (1-sigma)   Units 
e .1638187897454419 5.8158e-05  
a .9232839384686726 1.557e-05 au
q .7720326810773297 6.6504e-05 au
i 8.107741733344733 0.0034549 deg
node 58.84161329418502 0.00012075 deg
peri 317.3604991568706 0.0026565 deg
M 210.1050460094442 0.086637 deg
tp 2459135.422959937059
(2020-Oct-12.92295994)
0.081393 TDB
period 324.0420326650986
0.89
0.008197
2.244e-05
d
yr
n 1.110966984866634 2.8103e-05 deg/d
Q 1.074535195860016 1.8121e-05 au
  Orbit Determination Parameters
   # obs. used (total)      108  
   data-arc span      2 days  
   first obs. used      2013-05-18  
   last obs. used      2013-05-20  
   planetary ephem.      DE431  
   SB-pert. ephem.      SB431-N16  
   condition code      5  
   norm. resid. RMS      .26247  
   source      ORB  
   producer      Otto Matic  
   solution date      2017-Apr-06 08:45:45  

Additional Information
 Earth MOID = .00690215 au 
 Jupiter MOID = 4.18534 au 
 T_jup = 6.458 
[ show covariance matrix ]

Ephemeris | Orbit Diagram | Orbital Elements | Mission Design | Physical Parameters | Close-Approach Data ]

Physical Parameter Table
Parameter Symbol Value Units Sigma Reference Notes
absolute magnitude H 26.6   n/a MPO263303  

[ hide close-approach data ]
Close-Approach Data   ...sorted by Date/Time (TDB)
Date/Time (TDB) Time Uncertainty
(days_HH:MM)
Body Nominal Distance (au) Minimum Distance (au) Maximum Distance (au) V-relative (km/s) V-infinity (km/s) JD (TDB) Time Uncertainty (minutes) Semi-major axis (km) Semi-minor axis (km) range-LOV angle (deg) N-sigma BP Orbit Ref. Reference Modified
1951-Oct-04 15:12 7_17:47 Venus 0.0544321071978045 0.0244534487626583 0.085006091250771 3.48401869350493 3.47254908026687 2433924.133396302 11146.5729340783 1536537.61590379 1206.2320782188 6.66081681987864 3450.52357418441 T 9 CATAB v2.0e-lin.ifort 2017-Nov-29 11:31:44 2018-Dec-11 16:03
1952-May-13 07:39 1_20:03 Earth 0.412681737039645 0.310148534421129 0.515252056799807 17.3244251474648 17.3240524615793 2434145.818813473 2642.62443192434 5117564.59035228 311.68298561366 2.16727510737486 5794.62380986502 T 9 CATAB v2.0e-lin.ifort 2017-Nov-29 11:31:44 2018-Dec-11 16:03
1958-Feb-21 15:49 13:40 Earth 0.489774516549901 0.47963614052812 0.499927735591674 19.0309567169731 19.0306708534035 2436256.159362333 819.508020290884 523490.806368043 1371.19438480614 -14.8856599095858 10850.8934053982 T 9 CATAB v2.0e-lin.ifort 2017-Nov-29 11:31:44 2018-Dec-11 16:03
1958-Nov-22 16:05 10:31 Earth 0.191371042527937 0.189719641556193 0.1930679838437 7.04659809752253 7.04462195832565 2436530.170314201 630.661963022714 169348.631011958 3146.48729040893 60.4850769317452 5672.56335993652 T 9 CATAB v2.0e-lin.ifort 2017-Nov-29 11:31:44 2018-Dec-11 16:03
1959-May-20 14:13 23:05 Earth 0.0292133695193385 0.0171986919824299 0.0414391722270576 5.3767769840227 5.35978690544251 2436709.092625854 1385.25801343022 617010.65728176 229.211554059864 -10.388840452915 4860.14774271392 T 9 CATAB v2.0e-lin.ifort 2017-Nov-29 11:31:44 2018-Dec-11 16:03
1965-Nov-25 05:17 1_08:14 Venus 0.0969923758998867 0.0465493496133708 0.183466392599714 5.40134007496698 5.39719343276631 2439089.719926293 1934.27362627418 4605723.7538569 740.47946727576 28.7652498807272 14033.836591163 T 9 CATAB v2.0e-lin.ifort 2017-Nov-29 11:31:44 2018-Dec-11 16:03
1966-Feb-12 03:18 1_18:42 Earth 0.3349561931581 0.261581306677858 0.412960437893189 14.0273060352664 14.0267389363056 2439168.637745971 2561.73904049854 4256155.44606963 972.113344846169 -26.7653422761482 16387.8908745587 T 9 CATAB v2.0e-lin.ifort 2017-Nov-29 11:31:44 2018-Dec-11 16:03
1967-May-23 11:58 1_09:00 Earth 0.111194856572921 0.0199500510161273 0.204725206178348 8.61531109281319 8.61252928697558 2439633.998269044 1980.48582592332 4675380.5539241 118.290453230774 5.56577432629104 7934.11292971914 T 9 CATAB v2.0e-lin.ifort 2017-Nov-29 11:31:44 2018-Dec-11 16:03
1974-Feb-04 04:07 4_11:05 Earth 0.208770586457861 0.143345808871075 0.304782112866791 9.64591508971538 9.64459187780953 2442082.671322324 6424.61773075346 5715093.46191566 953.103644669311 -40.913562501921 13305.2773422033 T 9 CATAB v2.0e-lin.ifort 2017-Nov-29 11:31:44 2018-Dec-11 16:03
1975-May-19 11:09 2_06:52 Earth 0.262422737557302 0.15475684358979 0.370197509529782 12.8577914139456 12.8570017217322 2442551.964883151 3291.63354775851 5378187.58269585 238.902126508813 2.68440866344852 5489.81510665993 T 9 CATAB v2.0e-lin.ifort 2017-Nov-29 11:31:44 2018-Dec-11 16:03
1983-May-13 11:45 1_12:38 Earth 0.429456613055331 0.349222618546928 0.509715952891663 17.8156473988639 17.8152991451969 2445467.989527876 2198.30172621227 4004957.45460735 321.666835229474 2.35511385707255 6372.49040119256 T 9 CATAB v2.0e-lin.ifort 2017-Nov-29 11:31:44 2018-Dec-11 16:03
1988-Jan-18 02:40 10:46 Venus 0.118866390649209 0.0549243954498828 0.193307556621181 6.20650543233569 6.20356124289483 2447178.611228947 646.172665897133 3882752.23751904 613.712358030634 21.9905556790815 13709.9458901458 T 9 CATAB v2.0e-lin.ifort 2017-Nov-29 11:31:44 2018-Dec-11 16:03
1997-Feb-17 15:57 04:53 Earth 0.431413866543779 0.430651112289614 0.432177297145398 17.1378049120618 17.1374445262969 2450497.164597294 292.880071812321 46622.2954833455 410.99391887972 -35.3041255212776 58502.0864889806 T 9 CATAB v2.0e-lin.ifort 2017-Nov-29 11:31:44 2018-Dec-11 16:03
1997-Nov-11 12:13 1_08:52 Earth 0.205111474777402 0.20335626818011 0.207056105509841 7.34097322091739 7.3392034334578 2450764.008907748 1972.12967180864 324356.970540718 1856.18499843713 73.4720524812069 19337.3654119164 T 9 CATAB v2.0e-lin.ifort 2017-Nov-29 11:31:44 2018-Dec-11 16:03
1998-May-22 22:36 04:33 Earth 0.0179566370344309 0.0126836485442275 0.0235516290657329 6.27628453155997 6.25259780658173 2450956.441474359 273.031805905294 296513.994787847 25.9120445134009 22.8419287710885 16272.3075701359 T 9 CATAB v2.0e-lin.ifort 2017-Nov-29 11:31:44 2018-Dec-11 16:03
2005-Jan-30 20:33 04:26 Earth 0.156707809526634 0.154881197413533 0.158584804355669 7.34695654883137 7.34464191305107 2453401.356486548 265.515685666905 167842.204028038 1228.00748342489 -56.6487659465934 9549.07681361234 T 9 CATAB v2.0e-lin.ifort 2017-Nov-29 11:31:44 2018-Dec-11 16:03
2005-Sep-07 01:44 2_10:26 Earth 0.252438766492596 0.25203432228455 0.252971627091042 6.54258505652606 6.54097158805206 2453620.572157938 3506.13977000004 286704.676932508 2502.49673344431 -85.3454658826695 7534.92620331251 T 9 CATAB v2.0e-lin.ifort 2017-Nov-29 11:31:44 2018-Dec-11 16:03
2006-May-15 23:43 01:26 Earth 0.359890768970688 0.356720250276887 0.363061365650226 15.7512013373508 15.7507312977524 2453871.487943242 86.4391722049348 158323.457623883 287.037201877398 3.06774845566148 7506.53415570081 T 9 CATAB v2.0e-lin.ifort 2017-Nov-29 11:31:44 2018-Dec-11 16:03
2012-Feb-22 18:19 00:11 Earth 0.480565148290174 0.480418049876231 0.480712247942014 18.7162067157422 18.7159104743848 2455980.263471099 10.6603400098245 7680.35901824149 6197.98499002084 30.1388470661758 7663.84827531799 T 9 CATAB v2.0e-lin.ifort 2017-Nov-29 11:31:44 2018-Dec-11 16:03
2012-Nov-18 18:59 02:41 Earth 0.198613708176093 0.198395211569714 0.198833824957927 7.20820098475531 7.20633961639799 2456250.291244412 160.590020159632 31851.2691314589 3551.52949904638 70.9351381338958 4101.74923380818 T 9 CATAB v2.0e-lin.ifort 2017-Nov-29 11:31:44 2018-Dec-11 16:03
2013-May-21 13:22 < 00:01 Moon 0.00596292712934505 0.00595363140134399 0.00597222320888833 6.65409621162121 6.65327017909155 2456434.057264380 0.0606311674798184 469.139997470962 7.50728391198089 -8.91328077841549 16162.0160620055 T 9 CATAB v2.0e-lin.ifort 2017-Nov-29 11:31:44 2018-Dec-11 16:03
2013-May-21 14:26 < 00:01 Earth 0.00819073019335866 0.00818130767406989 0.00820015229604854 5.82722394594158 5.77112904182022 2456434.101571945 0.105435363140838 460.647180132135 10.0418291325963 0.273339188423456 1454.1707902347 T 9 CATAB v2.0e-lin.ifort 2017-Nov-29 11:31:44 2018-Dec-11 16:03
2016-May-05 16:30 02:20 Venus 0.142488870828673 0.140289809685585 0.144690246241798 7.11725802217196 7.11511641094179 2457514.187593464 140.368489008204 113392.371422139 183.803510070696 14.7223037342943 23626.444099933 T 9 CATAB v2.0e-lin.ifort 2017-Nov-29 11:31:44 2018-Dec-11 16:03
2020-Feb-12 14:23 02:23 Earth 0.34252010999969 0.33886830264329 0.346182390496772 14.3417931202162 14.341250706028 2458892.099156704 143.327726503455 205369.412626393 772.3266554138 -27.3863414885832 21976.5078624603 T 9 CATAB v2.0e-lin.ifort 2017-Nov-29 11:31:44 2018-Dec-11 16:03
2020-Oct-24 15:01 2_07:40 Earth 0.228473733425705 0.227662740058484 0.229843132332412 7.63746531462888 7.63593820488538 2459147.125469806 3339.53827381916 566292.355762861 1252.37704404182 84.4863071919409 13796.7931900717 T 9 CATAB v2.0e-lin.ifort 2017-Nov-29 11:31:44 2018-Dec-11 16:03
